N4CHT-2 Weather Reports


time (UTC)temp
C
wind
direction
speed
KPH
gust
KPH
rain 1hr
cm
rain 24hr
cm
rain mn
cm
humidity
%
barometer
mb
20220124102752 -1 309 0.0 0.0 0.00 0.00 0.00
20220124102252 0 309 0.0 0.0 0.00 0.00 0.00
20220124102021 0 214 0.0 0.0 0.00 0.00 0.00
20220124101746 0 214 0.0 0.0 0.00 0.00 0.00
20220124101244 0 232 4.8 1.6 0.00 0.00 0.00
20220124100950 0 233 6.4 4.8 0.00 0.00 0.00
20220124100745 0 233 6.4 4.8 0.00 0.00 0.00
20220124100242 0 264 8.0 9.7 0.00 0.00 0.00
20220124100000 0 249 9.7 6.4 0.00 0.00 0.00
20220124095743 0 249 9.7 6.4 0.00 0.00 0.00
20220124095243 0 274 8.0 6.4 0.00 0.00 0.00
20220124095125 0 250 9.7 9.7 0.00 0.00 0.00
20220124094739 0 250 9.7 9.7 0.00 0.00 0.00
20220124094237 0 260 6.4 1.6 0.00 0.00 0.00
20220124094044 0 248 6.4 3.2 0.00 0.00 0.00
20220124093738 0 248 6.4 3.2 0.00 0.00 0.00
20220124093230 0 293 4.8 0.0 0.00 0.00 0.00
20220124092730 0 305 1.6 6.4 0.00 0.00 0.00
20220124091728 0 293 9.7 4.8 0.00 0.00 0.00
20220124091614 0 300 8.0 9.7 0.00 0.00 0.00
20220124091226 0 300 8.0 9.7 0.00 0.00 0.00
20220124090727 0 291 8.0 9.7 0.00 0.00 0.00
20220124090224 0 284 11.3 17.7 0.00 0.00 0.00
20220124085930 0 256 14.5 12.9 0.00 0.00 0.00
20220124085724 0 256 14.5 12.9 0.00 0.00 0.00
20220124085224 0 259 11.3 9.7 0.00 0.00 0.00
20220124085035 0 253 14.5 14.5 0.00 0.00 0.00
20220124084720 0 253 14.5 14.5 0.00 0.00 0.00
20220124084457 0 280 9.7 11.3 0.00 0.00 0.00
20220124084220 0 280 9.7 11.3 0.00 0.00 0.00
20220124083721 0 232 12.9 6.4 0.00 0.00 0.00
20220124083602 0 253 4.8 8.0 0.00 0.00 0.00
20220124083216 0 253 4.8 8.0 0.00 0.00 0.00
20220124082716 0 172 0.0 0.0 0.00 0.00 0.00
20220124082216 0 172 0.0 0.0 0.00 0.00 0.00
20220124081714 0 172 0.0 0.0 0.00 0.00 0.00
20220124081457 0 172 0.0 0.0 0.00 0.00 0.00
20220124081215 0 172 0.0 0.0 0.00 0.00 0.00
20220124080715 0 172 0.0 0.0 0.00 0.00 0.00
20220124080212 0 172 0.0 0.0 0.00 0.00 0.00
20220124075713 0 172 0.0 0.0 0.00 0.00 0.00
20220124075510 0 172 0.0 0.0 0.00 0.00 0.00
20220124075213 0 172 0.0 0.0 0.00 0.00 0.00
20220124074708 0 172 0.0 0.0 0.00 0.00 0.00
20220124074208 0 172 0.0 0.0 0.00 0.00 0.00
20220124073842 0 172 0.0 0.0 0.00 0.00 0.00
20220124073708 0 172 0.0 0.0 0.00 0.00 0.00
20220124073436 0 172 0.0 0.0 0.00 0.00 0.00
20220124073205 0 172 0.0 0.0 0.00 0.00 0.00
20220124072705 0 172 0.0 0.0 0.00 0.00 0.00
20220124072206 0 172 0.0 0.0 0.00 0.00 0.00
20220124071703 0 172 0.0 0.0 0.00 0.00 0.00
20220124071203 0 248 0.0 0.0 0.00 0.00 0.00
20220124070701 0 248 0.0 0.0 0.00 0.00 0.00
20220124070159 0 186 0.0 0.0 0.00 0.00 0.00
20220124065700 0 186 0.0 0.0 0.00 0.00 0.00
20220124065200 0 186 0.0 0.0 0.00 0.00 0.00
20220124064658 0 186 0.0 0.0 0.00 0.00 0.00
20220124064158 0 186 0.0 0.0 0.00 0.00 0.00
20220124063659 0 186 0.0 0.0 0.00 0.00 0.00
20220124063155 0 186 0.0 0.0 0.00 0.00 0.00
20220124062655 0 186 0.0 0.0 0.00 0.00 0.00
20220124062450 0 186 0.0 0.0 0.00 0.00 0.00
20220124062153 0 186 0.0 0.0 0.00 0.00 0.00
20220124061902 1 186 0.0 0.0 0.00 0.00 0.00
20220124061647 1 186 0.0 0.0 0.00 0.00 0.00
20220124061148 1 190 0.0 0.0 0.00 0.00 0.00
20220124060648 1 190 0.0 0.0 0.00 0.00 0.00
20220124060146 1 190 1.6 1.6 0.00 0.00 0.00
20220124055646 1 211 0.0 0.0 0.00 0.00 0.00
20220124055146 1 176 4.8 4.8 0.00 0.00 0.00
20220124054946 1 187 6.4 4.8 0.00 0.00 0.00
20220124054639 1 187 6.4 4.8 0.00 0.00 0.00
20220124054502 1 236 3.2 11.3 0.00 0.00 0.00
20220124054138 1 236 3.2 11.3 0.00 0.00 0.00
20220124053639 1 255 4.8 8.0 0.00 0.00 0.00
20220124053137 0 238 0.0 1.6 0.00 0.00 0.00
20220124052637 0 276 0.0 0.0 0.00 0.00 0.00
20220124052432 0 276 0.0 0.0 0.00 0.00 0.00
20220124052138 0 276 0.0 0.0 0.00 0.00 0.00
20220124051634 0 276 0.0 0.0 0.00 0.00 0.00
20220124051132 0 276 0.0 0.0 0.00 0.00 0.00
20220124050942 0 276 0.0 0.0 0.00 0.00 0.00
20220124050632 0 276 0.0 0.0 0.00 0.00 0.00
20220124050125 0 23 0.0 0.0 0.00 0.00 0.00
20220124045919 -1 142 0.0 0.0 0.00 0.00 0.00
20220124045626 -1 142 0.0 0.0 0.00 0.00 0.00
20220124045125 0 142 0.0 0.0 0.00 0.00 0.00
20220124044920 -1 142 0.0 0.0 0.00 0.00 0.00
20220124044621 -1 142 0.0 0.0 0.00 0.00 0.00
20220124043621 0 142 0.0 0.0 0.00 0.00 0.00
20220124043410 0 142 0.0 0.0 0.00 0.00 0.00
20220124043118 0 142 0.0 0.0 0.00 0.00 0.00
20220124042618 0 142 0.0 0.0 0.00 0.00 0.00
20220124042118 0 142 0.0 0.0 0.00 0.00 0.00
20220124041615 0 142 0.0 0.0 0.00 0.00 0.00
20220124041116 0 142 0.0 0.0 0.00 0.00 0.00
20220124040827 0 142 0.0 0.0 0.00 0.00 0.00
20220124040616 0 142 0.0 0.0 0.00 0.00 0.00
20220124040114 0 142 0.0 0.0 0.00 0.00 0.00
20220124035613 0 142 0.0 0.0 0.00 0.00 0.00
20220124035113 0 142 0.0 0.0 0.00 0.00 0.00
20220124034819 1 142 0.0 0.0 0.00 0.00 0.00
20220124034609 1 142 0.0 0.0 0.00 0.00 0.00
20220124034421 1 180 0.0 0.0 0.00 0.00 0.00
20220124034110 1 180 0.0 0.0 0.00 0.00 0.00
20220124033608 1 243 3.2 6.4 0.00 0.00 0.00
20220124033416 1 226 1.6 3.2 0.00 0.00 0.00
20220124033105 1 226 1.6 3.2 0.00 0.00 0.00
20220124032921 1 240 4.8 4.8 0.00 0.00 0.00
20220124032604 1 240 4.8 4.8 0.00 0.00 0.00
20220124032105 1 219 4.8 6.4 0.00 0.00 0.00
20220124031601 0 187 0.0 0.0 0.00 0.00 0.00
20220124031417 -1 187 0.0 0.0 0.00 0.00 0.00
20220124031103 -1 187 0.0 0.0 0.00 0.00 0.00
20220124030856 0 187 0.0 0.0 0.00 0.00 0.00
20220124030602 0 187 0.0 0.0 0.00 0.00 0.00
20220124030057 0 187 0.0 0.0 0.00 0.00 0.00
20220124025557 0 187 0.0 0.0 0.00 0.00 0.00
20220124025500 0 187 0.0 0.0 0.00 0.00 0.00
20220124025058 0 187 0.0 0.0 0.00 0.00 0.00
20220124024555 0 187 0.0 0.0 0.00 0.00 0.00
20220124024308 -1 187 0.0 0.0 0.00 0.00 0.00
20220124024054 -1 187 0.0 0.0 0.00 0.00 0.00
20220124023052 0 187 0.0 0.0 0.00 0.00 0.00
20220124022552 0 187 0.0 0.0 0.00 0.00 0.00
20220124022052 0 187 0.0 0.0 0.00 0.00 0.00
20220124021749 0 187 0.0 0.0 0.00 0.00 0.00
20220124021547 0 187 0.0 0.0 0.00 0.00 0.00
20220124021048 0 187 0.0 0.0 0.00 0.00 0.00
20220124020546 0 187 0.0 0.0 0.00 0.00 0.00
20220124020044 0 187 0.0 0.0 0.00 0.00 0.00
20220124015544 0 145 0.0 0.0 0.00 0.00 0.00
20220124015045 0 145 0.0 0.0 0.00 0.00 0.00
20220124014924 0 145 0.0 0.0 0.00 0.00 0.00
20220124014541 0 145 0.0 0.0 0.00 0.00 0.00
20220124014041 0 145 0.0 0.0 0.00 0.00 0.00
20220124013538 0 145 0.0 0.0 0.00 0.00 0.00
20220124013351 0 145 0.0 0.0 0.00 0.00 0.00
20220124013034 0 145 0.0 0.0 0.00 0.00 0.00
20220124012535 0 145 0.0 0.0 0.00 0.00 0.00
20220124012035 0 145 0.0 0.0 0.00 0.00 0.00
20220124011533 0 145 0.0 0.0 0.00 0.00 0.00
20220124011034 0 145 0.0 0.0 0.00 0.00 0.00
20220124010533 0 145 0.0 0.0 0.00 0.00 0.00
20220124010031 0 145 0.0 0.0 0.00 0.00 0.00
20220124005532 0 145 0.0 0.0 0.00 0.00 0.00
20220124004529 0 145 0.0 0.0 0.00 0.00 0.00
20220124004030 0 145 0.0 0.0 0.00 0.00 0.00
20220124003530 0 145 0.0 0.0 0.00 0.00 0.00
20220124003026 0 145 0.0 0.0 0.00 0.00 0.00
20220124002526 0 145 0.0 0.0 0.00 0.00 0.00
20220124002027 0 145 0.0 0.0 0.00 0.00 0.00
20220124001521 0 145 0.0 0.0 0.00 0.00 0.00
20220124001021 0 145 0.0 0.0 0.00 0.00 0.00
20220124000018 0 145 0.0 0.0 0.00 0.00 0.00
20220123235753 0 145 0.0 0.0 0.00 0.00 0.00
20220123235518 0 145 0.0 0.0 0.00 0.00 0.00
20220123235250 0 145 0.0 0.0 0.00 0.00 0.00
20220123235019 0 145 0.0 0.0 0.00 0.00 0.00
20220123234515 1 145 0.0 0.0 0.00 0.00 0.00
20220123234252 0 145 0.0 0.0 0.00 0.00 0.00
20220123234015 0 145 0.0 0.0 0.00 0.00 0.00
20220123233512 0 145 0.0 0.0 0.00 0.00 0.00
20220123233007 0 145 0.0 0.0 0.00 0.00 0.00
20220123232841 0 145 0.0 0.0 0.00 0.00 0.00
20220123232508 0 145 0.0 0.0 0.00 0.00 0.00
20220123232248 0 145 0.0 0.0 0.00 0.00 0.00
20220123232008 0 145 0.0 0.0 0.00 0.00 0.00
20220123231827 0 145 0.0 0.0 0.00 0.00 0.00
20220123231502 0 145 0.0 0.0 0.00 0.00 0.00
20220123231002 0 145 0.0 0.0 0.00 0.00 0.00
20220123230459 0 145 0.0 0.0 0.00 0.00 0.00
20220123225955 0 145 0.0 0.0 0.00 0.00 0.00
20220123225748 0 145 0.0 0.0 0.00 0.00 0.00
20220123225455 0 145 0.0 0.0 0.00 0.00 0.00
20220123224732 0 145 0.0 0.0 0.00 0.00 0.00
20220123224452 0 145 0.0 0.0 0.00 0.00 0.00
20220123223952 0 145 0.0 0.0 0.00 0.00 0.00
20220123223743 0 145 0.0 0.0 0.00 0.00 0.00
20220123223452 0 145 0.0 0.0 0.00 0.00 0.00
20220123223255 0 145 0.0 0.0 0.00 0.00 0.00
20220123222945 0 145 0.0 0.0 0.00 0.00 0.00
20220123222800 0 145 0.0 0.0 0.00 0.00 0.00
20220123222445 0 145 0.0 0.0 0.00 0.00 0.00
20220123222209 0 145 0.0 0.0 0.00 0.00 0.00
20220123221945 0 145 0.0 0.0 0.00 0.00 0.00
20220123221439 0 145 0.0 0.0 0.00 0.00 0.00
20220123220940 0 145 0.0 0.0 0.00 0.00 0.00
20220123220440 1 145 0.0 0.0 0.00 0.00 0.00
20220123215937 1 145 0.0 0.0 0.00 0.00 0.00
20220123215436 1 145 0.0 0.0 0.00 0.00 0.00
20220123214935 2 145 0.0 0.0 0.00 0.00 0.00
20220123214432 2 145 0.0 0.0 0.00 0.00 0.00
20220123213432 2 145 0.0 0.0 0.00 0.00 0.00
20220123212924 2 145 0.0 0.0 0.00 0.00 0.00
20220123212424 2 145 0.0 0.0 0.00 0.00 0.00
20220123211924 3 145 0.0 0.0 0.00 0.00 0.00
20220123211421 3 145 0.0 0.0 0.00 0.00 0.00
20220123211212 3 145 0.0 0.0 0.00 0.00 0.00
20220123210922 3 145 0.0 0.0 0.00 0.00 0.00
20220123210422 3 145 0.0 0.0 0.00 0.00 0.00
20220123210132 3 145 0.0 0.0 0.00 0.00 0.00
20220123205913 3 145 0.0 0.0 0.00 0.00 0.00
20220123205414 3 145 0.0 0.0 0.00 0.00 0.00
20220123204914 3 145 0.0 0.0 0.00 0.00 0.00
20220123204722 2 145 0.0 0.0 0.00 0.00 0.00
20220123204411 2 145 0.0 0.0 0.00 0.00 0.00
20220123203911 2 145 0.0 0.0 0.00 0.00 0.00
20220123203412 2 145 0.0 0.0 0.00 0.00 0.00
20220123203229 3 145 0.0 0.0 0.00 0.00 0.00
20220123202908 3 145 0.0 0.0 0.00 0.00 0.00
20220123202710 3 145 0.0 0.0 0.00 0.00 0.00
20220123202408 3 145 0.0 0.0 0.00 0.00 0.00
20220123202233 3 145 0.0 0.0 0.00 0.00 0.00
20220123201906 3 145 0.0 0.0 0.00 0.00 0.00
20220123201630 3 145 0.0 0.0 0.00 0.00 0.00
20220123201403 3 145 0.0 0.0 0.00 0.00 0.00
20220123200904 3 145 0.0 0.0 0.00 0.00 0.00
20220123200637 3 145 0.0 0.0 0.00 0.00 0.00
20220123200404 3 145 0.0 0.0 0.00 0.00 0.00
20220123200059 3 145 0.0 0.0 0.00 0.00 0.00
20220123195859 3 145 0.0 0.0 0.00 0.00 0.00
20220123195355 3 145 0.0 0.0 0.00 0.00 0.00
20220123195236 4 145 0.0 0.0 0.00 0.00 0.00
20220123194855 4 145 0.0 0.0 0.00 0.00 0.00
20220123194643 5 145 0.0 0.0 0.00 0.00 0.00
20220123194347 5 145 0.0 0.0 0.00 0.00 0.00
20220123194129 5 145 0.0 0.0 0.00 0.00 0.00
20220123193848 5 145 0.0 0.0 0.00 0.00 0.00
20220123193348 5 145 0.0 0.0 0.00 0.00 0.00
20220123193254 5 145 0.0 0.0 0.00 0.00 0.00
20220123192844 5 145 0.0 0.0 0.00 0.00 0.00
20220123192628 4 145 0.0 0.0 0.00 0.00 0.00
20220123192344 4 145 0.0 0.0 0.00 0.00 0.00
20220123192110 4 145 0.0 0.0 0.00 0.00 0.00
20220123191845 4 145 0.0 0.0 0.00 0.00 0.00
20220123191342 3 145 0.0 0.0 0.00 0.00 0.00
20220123190843 3 145 0.0 0.0 0.00 0.00 0.00
20220123190630 3 143 6.4 3.2 0.00 0.00 0.00
20220123190343 3 143 6.4 3.2 0.00 0.00 0.00
20220123190107 3 128 6.4 3.2 0.00 0.00 0.00
20220123185839 3 128 6.4 3.2 0.00 0.00 0.00
20220123185639 4 136 0.0 0.0 0.00 0.00 0.00
20220123185339 4 136 0.0 0.0 0.00 0.00 0.00
20220123184838 5 136 0.0 0.0 0.00 0.00 0.00
20220123184334 5 136 0.0 0.0 0.00 0.00 0.00
20220123183835 5 136 0.0 0.0 0.00 0.00 0.00
20220123183658 4 136 3.2 0.0 0.00 0.00 0.00
20220123183335 4 136 3.2 0.0 0.00 0.00 0.00
20220123183115 5 118 0.0 0.0 0.00 0.00 0.00
20220123182832 5 118 0.0 0.0 0.00 0.00 0.00
20220123182708 5 118 0.0 0.0 0.00 0.00 0.00
20220123182331 5 118 0.0 0.0 0.00 0.00 0.00
20220123182131 5 118 0.0 0.0 0.00 0.00 0.00
20220123181823 5 118 0.0 0.0 0.00 0.00 0.00
20220123181320 5 118 0.0 0.0 0.00 0.00 0.00
20220123180815 5 118 0.0 0.0 0.00 0.00 0.00
20220123180315 5 118 0.0 0.0 0.00 0.00 0.00
20220123180115 6 136 0.0 0.0 0.00 0.00 0.00
20220123175810 6 136 0.0 0.0 0.00 0.00 0.00
20220123175310 5 136 0.0 0.0 0.00 0.00 0.00
20220123174810 5 110 3.2 3.2 0.00 0.00 0.00
20220123174308 5 118 3.2 4.8 0.00 0.00 0.00
20220123173809 5 94 0.0 0.0 0.00 0.00 0.00
20220123173308 5 100 0.0 3.2 0.00 0.00 0.00
20220123173028 5 70 0.0 0.0 0.00 0.00 0.00
20220123172805 5 70 0.0 0.0 0.00 0.00 0.00
20220123172116 5 98 3.2 4.8 0.00 0.00 0.00
20220123171805 5 98 3.2 4.8 0.00 0.00 0.00
20220123171301 5 115 0.0 3.2 0.00 0.00 0.00
20220123171048 6 94 0.0 0.0 0.00 0.00 0.00
20220123170801 6 94 0.0 0.0 0.00 0.00 0.00
20220123170302 3 104 4.8 4.8 0.00 0.00 0.00
20220123165759 3 87 4.8 3.2 0.00 0.00 0.00
20220123165444 3 98 0.0 0.0 0.00 0.00 0.00
20220123165257 3 98 0.0 0.0 0.00 0.00 0.00
20220123165025 3 98 0.0 0.0 0.00 0.00 0.00
20220123164752 3 98 0.0 0.0 0.00 0.00 0.00
20220123164249 3 98 0.0 0.0 0.00 0.00 0.00
20220123164058 3 98 0.0 0.0 0.00 0.00 0.00
20220123163750 3 98 0.0 0.0 0.00 0.00 0.00
20220123163250 4 124 0.0 4.8 0.00 0.00 0.00
20220123162748 4 80 4.8 3.2 0.00 0.00 0.00
20220123162248 5 55 0.0 0.0 0.00 0.00 0.00
20220123161747 4 73 0.0 0.0 0.00 0.00 0.00
20220123161245 4 32 1.6 8.0 0.00 0.00 0.00
20220123160744 4 113 0.0 6.4 0.00 0.00 0.00
20220123160245 3 107 1.6 0.0 0.00 0.00 0.00
20220123155959 5 46 0.0 1.6 0.00 0.00 0.00
20220123155741 5 46 0.0 1.6 0.00 0.00 0.00
20220123155238 5 46 0.0 0.0 0.00 0.00 0.00
20220123154229 3 46 0.0 0.0 0.00 0.00 0.00
20220123153728 2 46 1.6 0.0 0.00 0.00 0.00
20220123153227 1 176 0.0 0.0 0.00 0.00 0.00
20220123152721 1 176 0.0 0.0 0.00 0.00 0.00
20220123152222 0 176 0.0 0.0 0.00 0.00 0.00
20220123151722 2 176 0.0 0.0 0.00 0.00 0.00
20220123151219 1 176 0.0 0.0 0.00 0.00 0.00
20220123150904 2 176 0.0 0.0 0.00 0.00 0.00
20220123150720 2 176 0.0 0.0 0.00 0.00 0.00
20220123150220 2 176 0.0 0.0 0.00 0.00 0.00
20220123145715 1 176 0.0 0.0 0.00 0.00 0.00
20220123145215 0 176 0.0 0.0 0.00 0.00 0.00
20220123144715 2 176 0.0 0.0 0.00 0.00 0.00
20220123144404 1 176 0.0 0.0 0.00 0.00 0.00
20220123144210 1 176 0.0 0.0 0.00 0.00 0.00
20220123143711 0 176 0.0 0.0 0.00 0.00 0.00
20220123143508 1 176 0.0 0.0 0.00 0.00 0.00
20220123143432 1 176 0.0 0.0 0.00 0.00 0.00
20220123143211 1 176 0.0 0.0 0.00 0.00 0.00
20220123142848 1 176 0.0 0.0 0.00 0.00 0.00
20220123142706 1 176 0.0 0.0 0.00 0.00 0.00
20220123142433 -1 176 0.0 0.0 0.00 0.00 0.00
20220123142206 -1 176 0.0 0.0 0.00 0.00 0.00
20220123141849 0 176 0.0 0.0 0.00 0.00 0.00
20220123141706 0 176 0.0 0.0 0.00 0.00 0.00
20220123141201 -2 176 0.0 0.0 0.00 0.00 0.00
20220123140829 -6 176 0.0 0.0 0.00 0.00 0.00
20220123140657 -6 176 0.0 0.0 0.00 0.00 0.00
20220123140414 -6 176 0.0 0.0 0.00 0.00 0.00
20220123140157 -6 176 0.0 0.0 0.00 0.00 0.00
20220123135839 -6 176 0.0 0.0 0.00 0.00 0.00
20220123135653 -6 176 0.0 0.0 0.00 0.00 0.00
20220123135153 -6 176 0.0 0.0 0.00 0.00 0.00
20220123134820 -6 176 0.0 0.0 0.00 0.00 0.00
20220123134653 -6 176 0.0 0.0 0.00 0.00 0.00
20220123134409 -5 176 0.0 0.0 0.00 0.00 0.00
20220123134148 -5 176 0.0 0.0 0.00 0.00 0.00
20220123133648 -4 176 0.0 0.0 0.00 0.00 0.00
20220123133147 -5 176 0.0 0.0 0.00 0.00 0.00
20220123132816 -6 176 0.0 0.0 0.00 0.00 0.00
20220123132643 -6 176 0.0 0.0 0.00 0.00 0.00
20220123131946 -6 176 0.0 0.0 0.00 0.00 0.00
20220123131642 -6 176 0.0 0.0 0.00 0.00 0.00
20220123131139 -6 176 0.0 0.0 0.00 0.00 0.00
20220123130640 -6 176 0.0 0.0 0.00 0.00 0.00
20220123130424 -6 176 0.0 0.0 0.00 0.00 0.00
20220123130125 -6 176 0.0 0.0 0.00 0.00 0.00
20220123125756 -6 176 0.0 0.0 0.00 0.00 0.00
20220123125620 -6 176 0.0 0.0 0.00 0.00 0.00
20220123125119 -6 176 0.0 0.0 0.00 0.00 0.00
20220123124756 -6 176 0.0 0.0 0.00 0.00 0.00
20220123124619 -6 176 0.0 0.0 0.00 0.00 0.00
20220123123344 -8 176 0.0 0.0 0.00 0.00 0.00
20220123123111 -8 176 0.0 0.0 0.00 0.00 0.00
20220123122737 -8 176 0.0 0.0 0.00 0.00 0.00
20220123122608 -8 176 0.0 0.0 0.00 0.00 0.00
20220123122248 -8 176 0.0 0.0 0.00 0.00 0.00
20220123122106 -8 176 0.0 0.0 0.00 0.00 0.00
20220123121255 -8 176 0.0 0.0 0.00 0.00 0.00
20220123121102 -8 176 0.0 0.0 0.00 0.00 0.00
20220123120740 -8 176 0.0 0.0 0.00 0.00 0.00
20220123120602 -8 176 0.0 0.0 0.00 0.00 0.00
20220123120244 -8 176 0.0 0.0 0.00 0.00 0.00
20220123120059 -8 176 0.0 0.0 0.00 0.00 0.00
20220123115332 -8 176 0.0 0.0 0.00 0.00 0.00
20220123115057 -8 176 0.0 0.0 0.00 0.00 0.00
20220123114734 -8 176 0.0 0.0 0.00 0.00 0.00
20220123114557 -8 176 0.0 0.0 0.00 0.00 0.00
20220123114230 -8 176 0.0 0.0 0.00 0.00 0.00
20220123114052 -8 176 0.0 0.0 0.00 0.00 0.00
20220123113747 -8 176 0.0 0.0 0.00 0.00 0.00
20220123113552 -8 176 0.0 0.0 0.00 0.00 0.00
20220123113316 -7 176 0.0 0.0 0.00 0.00 0.00
20220123113050 -7 176 0.0 0.0 0.00 0.00 0.00
20220123112254 -7 176 0.0 0.0 0.00 0.00 0.00
20220123112048 -7 176 0.0 0.0 0.00 0.00 0.00
20220123111253 -7 176 0.0 0.0 0.00 0.00 0.00
20220123111043 -7 176 0.0 0.0 0.00 0.00 0.00
20220123110314 -7 176 0.0 0.0 0.00 0.00 0.00
20220123110035 -7 176 0.0 0.0 0.00 0.00 0.00
20220123105255 -7 176 0.0 0.0 0.00 0.00 0.00
20220123105033 -7 176 0.0 0.0 0.00 0.00 0.00
20220123104730 -7 176 0.0 0.0 0.00 0.00 0.00
20220123104534 -7 176 0.0 0.0 0.00 0.00 0.00
20220123104247 -7 176 0.0 0.0 0.00 0.00 0.00
20220123104030 -7 176 0.0 0.0 0.00 0.00 0.00
20220123103703 -7 176 0.0 0.0 0.00 0.00 0.00
20220123103530 -7 176 0.0 0.0 0.00 0.00 0.00
20220123103222 -7 176 0.0 0.0 0.00 0.00 0.00
20220123103030 -7 176 0.0 0.0 0.00 0.00 0.00